Tracking 28792 objects as of 24-Apr-2024
HD Live streaming from Space Station
objects crossing your sky now

COSMOS 2491 DEB

Track COSMOS 2491 DEB now!
10-day predictions


NORAD ID: 57565
Int'l Code: 2013-076BC
Perigee: 1,487.2 km
Apogee: 1,528.4 km
Inclination: 82.5 °
Period: 116.0 minutes
Semi major axis: 7878 km
RCS: Unknown
Launch date: December 25, 2013
Source: Commonwealth of Independent States (former USSR) (CIS)
Launch site: PLESETSK MISSILE AND SPACE COMPLEX (PKMTR)

Note: This is SATELLITE DEBRIS
Your satellite tracking list
Your tracking list is empty




NASA's NSSDC Master Catalog

Two Line Element Set (TLE):
1 57565U 13076BC  24106.82931055  .00001158  00000-0  84430-2 0  9997
2 57565  82.4878 308.9360 0026169 328.2274  31.7225 12.41398930 43230
Source of the keplerian elements: AFSPC